TimeEDT,TemperatureF,Dew PointF,Humidity,Sea Level PressureIn,VisibilityMPH,Wind Direction,Wind SpeedMPH,Gust SpeedMPH,PrecipitationIn,Events,Conditions,WindDirDegrees,DateUTC
12:38 AM,53.6,51.8,94,30.02,5.0,ENE,10.4,-,0.07,Rain,Rain,70,2013-06-07 04:38:00
12:53 AM,53.1,51.1,93,30.02,4.0,ENE,10.4,-,0.10,Rain,Rain,60,2013-06-07 04:53:00
1:41 AM,53.6,51.8,94,29.99,5.0,ENE,9.2,-,0.06,Rain,Light Rain,60,2013-06-07 05:41:00
1:53 AM,53.1,51.1,93,29.99,5.0,ENE,8.1,-,0.08,Rain,Rain,70,2013-06-07 05:53:00
2:46 AM,53.6,51.8,94,29.96,3.0,NE,9.2,-,0.10,Rain,Rain,50,2013-06-07 06:46:00
2:53 AM,53.1,52.0,96,29.98,4.0,East,6.9,-,0.11,Rain,Light Rain,80,2013-06-07 06:53:00
3:53 AM,53.1,52.0,96,29.95,4.0,ENE,9.2,-,0.08,Rain,Rain,60,2013-06-07 07:53:00
4:27 AM,53.6,51.8,94,29.94,4.0,NE,8.1,-,0.04,Rain,Rain,50,2013-06-07 08:27:00
4:50 AM,53.6,51.8,94,29.95,2.5,ENE,8.1,-,0.09,Rain,Rain,60,2013-06-07 08:50:00
4:53 AM,53.1,52.0,96,29.95,2.5,ENE,9.2,-,0.10,Rain,Rain,60,2013-06-07 08:53:00
5:04 AM,53.6,51.8,94,29.95,3.0,ENE,6.9,-,0.02,Rain,Rain,60,2013-06-07 09:04:00
5:53 AM,54.0,52.0,93,29.95,6.0,ENE,10.4,-,0.16,Rain,Light Rain,70,2013-06-07 09:53:00
6:53 AM,54.0,52.0,93,29.95,3.0,ENE,10.4,-,0.06,Rain,Light Rain,60,2013-06-07 10:53:00
7:38 AM,53.6,53.6,100,29.94,4.0,ENE,11.5,-,0.01,Rain,Light Rain,70,2013-06-07 11:38:00
7:53 AM,54.0,53.1,97,29.95,3.0,ENE,9.2,-,0.02,Rain,Light Rain,70,2013-06-07 11:53:00
8:24 AM,55.4,53.6,94,29.93,2.5,ENE,9.2,-,0.00,Rain,Light Rain,70,2013-06-07 12:24:00
8:34 AM,55.4,53.6,94,29.93,3.0,ENE,8.1,-,0.00,Rain,Light Rain,70,2013-06-07 12:34:00
8:53 AM,55.0,53.1,93,29.94,4.0,ENE,9.2,-,0.00,,Overcast,70,2013-06-07 12:53:00
9:53 AM,55.9,54.0,93,29.95,10.0,ENE,8.1,-,N/A,,Overcast,60,2013-06-07 13:53:00
10:53 AM,55.9,54.0,93,29.94,10.0,ENE,9.2,-,0.00,,Overcast,60,2013-06-07 14:53:00
11:53 AM,57.0,54.0,89,29.94,10.0,NE,9.2,-,N/A,,Overcast,50,2013-06-07 15:53:00
12:17 PM,57.2,53.6,88,29.94,10.0,NE,9.2,-,N/A,,Overcast,40,2013-06-07 16:17:00
12:44 PM,57.2,53.6,88,29.94,10.0,NE,8.1,-,N/A,,Overcast,50,2013-06-07 16:44:00
12:53 PM,57.0,54.0,89,29.94,10.0,NE,9.2,-,N/A,,Overcast,50,2013-06-07 16:53:00
1:39 PM,57.2,55.4,94,29.93,2.5,NE,8.1,-,0.01,Rain,Light Rain,40,2013-06-07 17:39:00
1:48 PM,57.2,55.4,94,29.92,4.0,NE,8.1,-,0.01,,Overcast,40,2013-06-07 17:48:00
1:53 PM,57.0,55.0,93,29.93,5.0,NE,9.2,-,0.01,,Overcast,50,2013-06-07 17:53:00
2:53 PM,57.0,55.0,93,29.93,5.0,NE,8.1,-,0.00,,Overcast,50,2013-06-07 18:53:00
3:28 PM,57.2,55.4,94,29.92,4.0,ENE,8.1,-,0.00,Rain,Light Rain,60,2013-06-07 19:28:00
3:38 PM,57.2,55.4,94,29.92,2.0,NE,9.2,-,0.01,Rain,Light Rain,50,2013-06-07 19:38:00
3:45 PM,57.2,55.4,94,29.92,2.0,NE,9.2,-,0.01,Rain,Light Rain,50,2013-06-07 19:45:00
3:53 PM,57.0,55.0,93,29.93,1.8,ENE,9.2,-,0.02,Rain,Light Rain,60,2013-06-07 19:53:00
4:08 PM,57.2,55.4,94,29.91,2.5,ENE,6.9,-,0.00,Rain,Light Rain,60,2013-06-07 20:08:00
4:53 PM,57.9,55.9,93,29.91,1.8,ENE,9.2,-,0.02,Rain,Light Rain,60,2013-06-07 20:53:00
5:24 PM,57.2,55.4,94,29.90,2.0,ENE,9.2,-,0.01,Rain,Light Rain,60,2013-06-07 21:24:00
5:53 PM,57.0,55.9,96,29.91,2.0,NE,6.9,-,0.02,Rain,Light Rain,50,2013-06-07 21:53:00
6:14 PM,57.2,55.4,94,29.89,1.8,NE,8.1,-,0.01,Rain,Light Rain,50,2013-06-07 22:14:00
6:32 PM,57.2,55.4,94,29.89,2.5,NE,10.4,-,0.01,Rain,Light Rain,50,2013-06-07 22:32:00
6:43 PM,57.2,55.4,94,29.89,3.0,NE,9.2,-,0.01,,Overcast,50,2013-06-07 22:43:00
6:53 PM,57.0,55.0,93,29.90,3.0,NE,8.1,-,0.01,,Overcast,50,2013-06-07 22:53:00
7:00 PM,57.2,55.4,94,29.89,2.0,ENE,9.2,-,0.00,Rain,Light Rain,60,2013-06-07 23:00:00
7:09 PM,57.2,55.4,94,29.89,1.5,NE,11.5,-,0.01,Rain,Light Rain,50,2013-06-07 23:09:00
7:21 PM,57.2,55.4,94,29.89,3.0,NE,12.7,-,0.02,Rain,Light Rain,50,2013-06-07 23:21:00
7:53 PM,55.9,55.0,97,29.89,6.0,NE,8.1,-,0.02,,Overcast,50,2013-06-07 23:53:00
8:23 PM,55.4,55.4,100,29.89,10.0,NE,9.2,-,N/A,,Overcast,50,2013-06-08 00:23:00
8:53 PM,55.9,54.0,93,29.89,6.0,NE,9.2,-,N/A,,Overcast,50,2013-06-08 00:53:00
9:53 PM,55.9,54.0,93,29.89,4.0,NE,6.9,-,0.01,,Overcast,50,2013-06-08 01:53:00
10:18 PM,55.4,53.6,94,29.88,2.0,NE,9.2,-,N/A,,Overcast,50,2013-06-08 02:18:00
10:29 PM,55.4,53.6,94,29.88,1.8,NE,8.1,-,0.00,Rain,Light Rain,50,2013-06-08 02:29:00
10:49 PM,55.4,53.6,94,29.87,2.5,NE,8.1,-,0.01,,Overcast,50,2013-06-08 02:49:00
10:53 PM,55.0,54.0,96,29.88,2.5,NE,8.1,-,0.01,,Overcast,50,2013-06-08 02:53:00
11:23 PM,55.4,53.6,94,29.86,3.0,NE,6.9,-,N/A,,Overcast,50,2013-06-08 03:23:00
11:53 PM,55.0,54.0,96,29.87,4.0,NE,10.4,-,N/A,,Overcast,50,2013-06-08 03:53:00